Location: El Abasto
(10.3790°N, 67.5897°W)
Time: 18:42:14
(UTC+00:00)

IGS 5A - Pass Details

Date: 19 May 2024
Orbit: 572 x 575 km, 97.4° (Epoch: 06 April)

Event Time Altitude Azimuth Distance (km) Brightness Sun altitude
Rises 23:11:32 0° 170° (S) 2,766 6.6 -6.7°
Reaches altitude 10° 23:13:41 10° 171° (S) 1,869 5.7 -7.2°
Maximum altitude 23:17:44 84° 259° (W) 577 3.5 -8.1°
Drops below altitude 10° 23:21:47 10° 347° (NNW) 1,868 6.5 -9.1°
Sets 23:23:56 0° 348° (NNW) 2,765 7.4 -9.5°
